Location: Les Moreaux
(47.2278°N, 1.4966°E)
Time: 19:55:26
(UTC+00:00)

SL-24 DEB - Pass Details

Date: 19 May 2025
Orbit: 638 x 665 km, 92.0° (Epoch: 21 June)

Event Time Altitude Azimuth Distance (km) Brightness Sun altitude
Exits shadow 21:14:51 23° 147° (SSE) 1,383 5.2 -14.2°
Maximum altitude 21:17:27 53° 80° (E) 809 4.4 -14.5°
Drops below altitude 10° 21:21:53 10° 4° (N) 2,079 7.5 -14.9°
Sets 21:24:10 0° 0° (N) 3,000 8.5 -15.2°
